Location: Banksville Park
(38.5557°N, 75.1182°W)
Time: 23:04:02
(UTC+00:00)

Cosmos 1535 Rocket - Pass Details

Date: 19 September 2020
Orbit: 949 x 1003 km, 83.0° (Epoch: 30 October)

Event Time Altitude Azimuth Distance (km) Brightness Sun altitude
Rises 08:40:50 0° 351° (N) 3,729 7.7 -24.6°
Reaches altitude 10° 08:43:23 10° 349° (N) 2,779 7.0 -24.1°
Maximum altitude 08:49:45 75° 266° (W) 1,041 4.4 -23.0°
Drops below altitude 10° 08:56:05 10° 182° (S) 2,764 6.6 -21.8°
Sets 08:58:36 0° 181° (S) 3,707 7.3 -21.4°
